Flag for Colombia Weather past 2 weeks in Bogota, Colombia

Now
59 °F

Scattered clouds.


Feels Like: 58 °F
Forecast: 49 / 63 °F
Wind: 7 mph from East

Location: Bogota / Eldorado

Current Time: Oct 21, 2014 at 9:14:12 AM

Latest Report: Oct 21, 2014 at 8:00 AM


Visibility: N/A

Pressure: 30.37 "Hg

Humidity: 63%

Dew point: 46 °F

Location of BogotaLocation

Historic Weather in Bogota — Graph

°F

Bogota temperature yesterday

Maximum temperature yesterday: 64 °F (at 10:00 AM)
Minimum temperature yesterday: 48 °F (at 6:00 AM)
Average temperature yesterday: 56 °F

Past Weeks' High & Low Weather Summary

 TemperatureHumidityPressure
High68 °F (Oct 6, 1:00 PM)100% (Oct 7, 4:00 AM)30.44 "Hg (Oct 7, 4:00 AM)
Low48 °F (Oct 8, 5:00 AM)40% (Oct 14, 3:00 PM)30.04 "Hg (Oct 13, 3:00 PM)
Average57 °F78%30.33 "Hg
* Reported Oct 6 8:00 AM — Oct 21 8:00 AM, Bogota, Weather by CustomWeather, © 2014

Note: Actual official high and low records may vary slightly from our data, if they occured in-between our weather recording intervals... More about our weather records

Advertising

Bogota weather history for previous 24 hours

 ConditionsComfort  
Time TempWeatherWind HumidityBarometerVisibility
8:00 AM
Oct 21
59 °FScattered clouds.7 mph63%30.37 "HgN/A
7:00 AM55 °FScattered clouds.5 mph82%30.35 "HgN/A
6:00 AM50 °FScattered clouds.2 mph88%30.34 "HgN/A
5:00 AM50 °FCool.6 mph88%30.32 "HgN/A
4:00 AM50 °FPassing clouds.8 mph88%30.30 "HgN/A
3:00 AM52 °FPassing clouds.5 mph88%30.30 "HgN/A
2:00 AM52 °FPassing clouds.7 mph88%30.31 "HgN/A
1:00 AM52 °FPassing clouds.6 mph88%30.33 "HgN/A
12:00 AM54 °FPassing clouds.8 mph82%30.35 "HgN/A
11:00 PM
Oct 20
54 °FPassing clouds.5 mph82%30.37 "HgN/A
10:00 PM54 °FPassing clouds.7 mph88%30.36 "HgN/A
9:00 PM55 °FScattered showers. Passing clouds.2 mph82%30.35 "HgN/A
8:00 PM52 °FPassing clouds.2 mph94%30.33 "HgN/A
7:00 PM52 °FPassing clouds.2 mph94%30.29 "HgN/A
6:00 PM57 °FPassing clouds.7 mph82%30.24 "HgN/A
5:00 PM64 °FScattered clouds.2 mph52%30.22 "HgN/A
4:00 PM64 °FScattered clouds.2 mph49%30.21 "HgN/A
3:00 PM63 °FScattered clouds.5 mph56%30.22 "HgN/A
2:00 PM63 °FScattered clouds.5 mph64%30.28 "HgN/A
1:00 PM57 °FPartly sunny.8 mph82%30.33 "HgN/A
12:00 PM61 °FScattered showers. Partly sunny.8 mph68%30.36 "HgN/A
11:00 AM61 °FPartly sunny.7 mph59%30.38 "HgN/A
10:00 AM64 °FScattered clouds.8 mph52%30.39 "HgN/A
9:00 AM61 °FScattered clouds.8 mph63%30.40 "HgN/A
Weather by CustomWeather, © 2014

See weather overviewHow to use our weather pages